FW0063 Weather Reports


Display with metric or nautical units.
time (UTC)temp
F
wind
direction
speed
MPH
gust
MPH
rain 1hr
in
rain 24hr
in
rain mn
in
humidity
%
barometer
mb
20260507033340 65 308 8.0 12.0 0.00 0.00 0.00 67 1018.9
20260507032840 66 309 7.0 12.0 0.00 0.00 0.00 67 1018.7
20260507032338 66 321 7.0 11.0 0.00 0.00 0.00 66 1018.6
20260507031836 66 311 8.0 11.0 0.00 0.00 0.00 65 1018.6
20260507031329 66 306 8.0 10.0 0.00 0.00 0.00 64 1018.5
20260507030828 66 360 8.0 12.0 0.00 0.00 0.00 64 1018.5
20260507030346 67 313 10.0 12.0 0.00 0.00 0.00 63 1018.5
20260507025843 67 298 7.0 12.0 0.00 0.00 0.00 63 1018.5
20260507025342 67 297 8.0 12.0 0.00 0.00 0.00 62 1018.4
20260507024837 67 303 7.0 11.0 0.00 0.00 0.00 62 1018.3
20260507024338 67 302 8.0 11.0 0.00 0.00 0.00 62 1018.3
20260507023856 67 307 8.0 12.0 0.00 0.00 0.00 62 1018.2
20260507023356 68 303 8.0 12.0 0.00 0.00 0.00 62 1018.2
20260507022835 68 301 9.0 12.0 0.00 0.00 0.00 62 1018.1
20260507022334 68 298 8.0 13.0 0.00 0.00 0.00 62 1018.0
20260507021829 68 312 9.0 13.0 0.00 0.00 0.00 61 1018.0
20260507021327 69 311 8.0 12.0 0.00 0.00 0.00 61 1018.0
20260507020825 69 301 8.0 13.0 0.00 0.00 0.00 61 1017.9
20260507020341 69 299 10.0 13.0 0.00 0.00 0.00 61 1017.9
20260507015836 69 322 8.0 13.0 0.00 0.00 0.00 61 1017.9
20260507015337 69 302 9.0 12.0 0.00 0.00 0.00 60 1017.8
20260507014832 70 271 4.0 11.0 0.00 0.00 0.00 61 1017.8
20260507014331 70 277 8.0 11.0 0.00 0.00 0.00 61 1017.8
20260507013827 70 178 7.0 13.0 0.00 0.00 0.00 60 1017.9
20260507013327 70 221 5.0 11.0 0.00 0.00 0.00 60 1017.7
20260507012845 70 196 7.0 17.0 0.00 0.00 0.00 60 1017.7
20260507012339 70 218 7.0 17.0 0.00 0.00 0.00 59 1017.7
20260507011840 70 246 11.0 16.0 0.00 0.00 0.00 58 1017.6
20260507011336 70 182 10.0 14.0 0.00 0.00 0.00 58 1017.5
20260507010855 70 204 7.0 15.0 0.00 0.00 0.00 58 1017.4
20260507010352 70 223 10.0 17.0 0.00 0.00 0.00 58 1017.5
20260507005829 71 269 8.0 17.0 0.00 0.00 0.00 58 1017.5
20260507005324 71 207 7.0 15.0 0.00 0.00 0.00 58 1017.5
20260507004843 71 250 11.0 15.0 0.00 0.00 0.00 58 1017.6
20260507004343 71 298 9.0 16.0 0.00 0.00 0.00 58 1017.6
20260507003903 71 252 9.0 16.0 0.00 0.00 0.00 58 1017.4
20260507003402 71 205 5.0 14.0 0.00 0.00 0.00 58 1017.6
20260507002834 71 301 9.0 14.0 0.00 0.00 0.00 57 1017.5
20260507002334 72 202 8.0 16.0 0.00 0.00 0.00 57 1017.4
20260507001834 72 234 9.0 16.0 0.00 0.00 0.00 57 1017.3
20260507001331 72 205 10.0 16.0 0.00 0.00 0.00 56 1017.4
20260507000828 72 259 7.0 16.0 0.00 0.00 0.00 56 1017.4
20260507000328 72 180 9.0 16.0 0.00 0.00 0.00 56 1017.5
20260506235840 72 223 7.0 19.0 0.00 0.00 0.00 56 1017.5
20260506235337 72 232 10.0 19.0 0.00 0.00 0.00 56 1017.4
20260506234835 71 246 7.0 15.0 0.00 0.00 0.00 57 1017.4
20260506234333 71 269 8.0 15.0 0.00 0.00 0.00 56 1017.4
20260506233831 71 264 8.0 15.0 0.00 0.00 0.00 56 1017.4
20260506233343 71 275 9.0 15.0 0.00 0.00 0.00 56 1017.5
20260506232841 71 219 6.0 16.0 0.00 0.00 0.00 57 1017.3
20260506232401 71 279 9.0 16.0 0.00 0.00 0.00 57 1017.6
20260506231840 72 291 11.0 16.0 0.00 0.00 0.00 56 1017.5
20260506231358 72 269 7.0 16.0 0.00 0.00 0.00 56 1017.5
20260506230832 71 264 6.0 15.0 0.00 0.00 0.00 57 1017.5
20260506230353 72 261 9.0 14.0 0.00 0.00 0.00 57 1017.6
20260506225828 71 223 9.0 19.0 0.00 0.00 0.00 58 1017.6
20260506225326 71 306 12.0 19.0 0.00 0.00 0.00 57 1017.7
20260506224825 72 267 12.0 18.0 0.00 0.00 0.00 56 1017.7
20260506224342 72 240 5.0 16.0 0.00 0.00 0.00 56 1017.7
20260506223856 71 201 7.0 15.0 0.00 0.00 0.00 55 1017.9
20260506223335 72 299 8.0 13.0 0.00 0.00 0.00 55 1017.9
20260506222854 71 308 8.0 18.0 0.00 0.00 0.00 55 1018.0
20260506222350 71 307 11.0 18.0 0.00 0.00 0.00 55 1018.0
20260506221906 71 306 10.0 17.0 0.00 0.00 0.00 55 1018.0
20260506221341 72 213 7.0 20.0 0.00 0.00 0.00 54 1018.0
20260506220838 72 325 14.0 20.0 0.00 0.00 0.00 54 1018.2
20260506220339 72 247 8.0 17.0 0.00 0.00 0.00 55 1018.2
20260506215831 73 298 11.0 15.0 0.00 0.00 0.00 54 1018.2
20260506215325 73 289 11.0 15.0 0.00 0.00 0.00 54 1018.4
20260506214904 72 234 8.0 15.0 0.00 0.00 0.00 54 1018.2
20260506214341 73 238 8.0 14.0 0.00 0.00 0.00 53 1018.4
20260506213901 73 269 5.0 14.0 0.00 0.00 0.00 54 1018.4
20260506213336 73 262 10.0 15.0 0.00 0.00 0.00 53 1018.4
20260506212832 72 244 10.0 15.0 0.00 0.00 0.00 54 1018.5
20260506212352 72 205 7.0 12.0 0.00 0.00 0.00 55 1018.6
20260506211830 71 254 6.0 15.0 0.00 0.00 0.00 56 1018.6
20260506211348 71 221 11.0 15.0 0.00 0.00 0.00 56 1018.6
20260506210826 71 273 9.0 14.0 0.00 0.00 0.00 55 1018.9
20260506210340 72 272 11.0 13.0 0.00 0.00 0.00 55 1018.8
20260506205856 71 279 6.0 11.0 0.00 0.00 0.00 56 1018.8
20260506205354 71 217 7.0 15.0 0.00 0.00 0.00 57 1018.9
20260506204830 70 273 7.0 15.0 0.00 0.00 0.00 58 1019.1
20260506204328 70 288 8.0 14.0 0.00 0.00 0.00 57 1019.1
20260506203844 71 326 5.0 13.0 0.00 0.00 0.00 57 1019.0
20260506203343 71 266 6.0 13.0 0.00 0.00 0.00 58 1019.1
20260506202839 70 320 4.0 17.0 0.00 0.00 0.00 58 1019.1
20260506202336 71 290 11.0 17.0 0.00 0.00 0.00 57 1019.2
20260506201834 71 225 6.0 14.0 0.00 0.00 0.00 57 1019.2
20260506201333 71 296 4.0 14.0 0.00 0.00 0.00 57 1019.2
20260506200827 72 217 5.0 12.0 0.00 0.00 0.00 56 1019.3
20260506200344 72 312 5.0 9.0 0.00 0.00 0.00 55 1019.3
20260506195849 72 259 5.0 9.0 0.00 0.00 0.00 55 1019.4
20260506195327 72 209 5.0 8.0 0.00 0.00 0.00 55 1019.6
20260506194826 71 207 3.0 7.0 0.00 0.00 0.00 53 1019.6
20260506194340 71 265 3.0 11.0 0.00 0.00 0.00 54 1019.6
20260506193840 70 289 6.0 11.0 0.00 0.00 0.00 54 1019.6
20260506193338 70 309 2.0 10.0 0.00 0.00 0.00 54 1019.7
20260506192839 69 248 3.0 11.0 0.00 0.00 0.00 55 1019.7
20260506192356 69 282 8.0 13.0 0.00 0.00 0.00 55 1019.9
20260506191830 69 303 8.0 13.0 0.00 0.00 0.00 55 1019.9
20260506191329 69 286 6.0 14.0 0.00 0.00 0.00 56 1020.0
20260506190849 69 307 9.0 14.0 0.00 0.00 0.00 55 1020.1
20260506190329 69 309 3.0 11.0 0.00 0.00 0.00 55 1020.2
20260506185827 70 292 3.0 8.0 0.00 0.00 0.00 55 1020.2
20260506185345 69 262 3.0 10.0 0.00 0.00 0.00 55 1020.3
20260506184838 69 322 6.0 10.0 0.00 0.00 0.00 56 1020.3
20260506184337 68 190 3.0 13.0 0.00 0.00 0.00 56 1020.4
20260506183856 68 317 9.0 13.0 0.00 0.00 0.00 55 1020.5
20260506183336 69 311 5.0 10.0 0.00 0.00 0.00 55 1020.4
20260506182835 70 321 6.0 9.0 0.00 0.00 0.00 53 1020.4
20260506182330 70 14 3.0 8.0 0.00 0.00 0.00 55 1020.5
20260506181850 69 188 1.0 10.0 0.00 0.00 0.00 56 1020.5
20260506181326 69 185 5.0 10.0 0.00 0.00 0.00 56 1020.5
20260506180826 69 192 3.0 8.0 0.00 0.00 0.00 56 1020.5
20260506180344 68 99 3.0 8.0 0.00 0.00 0.00 55 1020.5
20260506175842 68 144 1.0 8.0 0.00 0.00 0.00 57 1020.6
20260506175336 68 121 3.0 8.0 0.00 0.00 0.00 57 1020.6
20260506174833 68 236 2.0 7.0 0.00 0.00 0.00 57 1020.6
20260506174332 67 215 3.0 9.0 0.00 0.00 0.00 58 1020.7
20260506173853 67 183 4.0 9.0 0.00 0.00 0.00 59 1020.6
20260506173333 67 270 3.0 9.0 0.00 0.00 0.00 58 1020.6
20260506172831 67 198 6.0 9.0 0.00 0.00 0.00 57 1020.7
20260506172327 68 202 2.0 7.0 0.00 0.00 0.00 58 1020.6
20260506171825 68 215 1.0 7.0 0.00 0.00 0.00 57 1020.7
20260506171324 69 256 1.0 6.0 0.00 0.00 0.00 58 1020.6
20260506170843 68 157 3.0 6.0 0.00 0.00 0.00 58 1020.7
20260506170345 68 53 0.0 6.0 0.00 0.00 0.00 60 1020.6
20260506165840 68 59 3.0 6.0 0.00 0.00 0.00 60 1020.6
20260506165334 67 116 2.0 4.0 0.00 0.00 0.00 61 1020.6
20260506164832 67 136 1.0 5.0 0.00 0.00 0.00 62 1020.6
20260506164333 66 189 0.0 5.0 0.00 0.00 0.00 63 1020.6
20260506163833 66 126 0.0 4.0 0.00 0.00 0.00 64 1020.6
20260506163330 65 124 1.0 4.0 0.00 0.00 0.00 64 1020.6
20260506162829 65 123 2.0 4.0 0.00 0.00 0.00 64 1020.7
20260506162326 65 176 0.0 6.0 0.00 0.00 0.00 66 1020.7
20260506161903 64 213 3.0 6.0 0.00 0.00 0.00 65 1020.6
20260506161340 65 194 1.0 5.0 0.00 0.00 0.00 66 1020.6
20260506160836 64 161 1.0 4.0 0.00 0.00 0.00 68 1020.6
20260506160416 64 84 0.0 5.0 0.00 0.00 0.00 69 1020.6
20260506155832 63 168 0.0 6.0 0.00 0.01 0.00 69 1020.6
20260506155330 63 168 2.0 6.0 0.00 0.01 0.00 69 1020.6
20260506154829 63 173 1.0 5.0 0.00 0.01 0.00 71 1020.6
20260506154348 63 111 0.0 3.0 0.00 0.01 0.00 72 1020.7
20260506153826 62 97 1.0 4.0 0.00 0.01 0.00 73 1020.7
20260506153343 62 78 2.0 4.0 0.00 0.01 0.00 74 1020.7
20260506152842 62 131 0.0 7.0 0.00 0.01 0.00 75 1020.8
20260506152340 61 123 1.0 7.0 0.00 0.01 0.00 78 1020.8
20260506151841 61 84 1.0 3.0 0.00 0.01 0.00 79 1020.8
20260506151337 61 104 0.0 3.0 0.00 0.01 0.00 81 1020.8
20260506150856 60 104 0.0 4.0 0.00 0.01 0.00 81 1020.7
20260506150332 60 98 1.0 4.0 0.00 0.01 0.00 82 1020.6
20260506145828 59 107 0.0 2.0 0.00 0.01 0.00 83 1020.7
20260506145328 59 104 0.0 3.0 0.00 0.01 0.00 84 1020.8
20260506144828 58 104 2.0 3.0 0.00 0.01 0.00 84 1020.8
20260506144349 58 109 1.0 3.0 0.00 0.01 0.00 85 1020.6
20260506143843 57 105 1.0 3.0 0.00 0.01 0.00 85 1020.7
20260506143340 57 105 0.0 4.0 0.00 0.01 0.00 86 1020.5
20260506142838 56 105 1.0 4.0 0.00 0.01 0.00 86 1020.5
20260506142335 56 112 2.0 4.0 0.00 0.01 0.00 86 1020.3
20260506141856 56 90 1.0 5.0 0.00 0.01 0.00 86 1020.3
20260506141331 55 360 2.0 5.0 0.00 0.01 0.00 87 1020.3
20260506140829 55 360 2.0 4.0 0.00 0.01 0.00 87 1020.3
20260506140329 55 360 1.0 4.0 0.00 0.01 0.00 87 1020.3
20260506135905 55 360 3.0 4.0 0.00 0.01 0.00 87 1020.2
20260506135343 55 360 1.0 3.0 0.00 0.01 0.00 87 1020.3
20260506134842 54 360 1.0 3.0 0.00 0.01 0.00 87 1020.3
20260506134336 54 360 2.0 3.0 0.00 0.01 0.00 87 1020.2
20260506133835 54 57 1.0 3.0 0.00 0.01 0.00 87 1020.2
20260506133336 54 55 1.0 3.0 0.00 0.01 0.00 87 1020.1
20260506132833 54 55 2.0 3.0 0.00 0.01 0.00 87 1020.1
20260506132333 54 45 2.0 3.0 0.00 0.01 0.00 87 1020.1
20260506131829 54 51 1.0 3.0 0.00 0.01 0.00 86 1020.0
20260506131325 54 65 2.0 3.0 0.00 0.01 0.00 86 1019.9
20260506130826 54 80 1.0 4.0 0.00 0.01 0.00 86 1019.8
20260506130327 54 78 2.0 4.0 0.00 0.01 0.00 86 1019.7
20260506125902 54 83 1.0 4.0 0.00 0.02 0.00 86 1019.7
20260506125340 54 82 2.0 4.0 0.00 0.02 0.00 86 1019.7
20260506124834 54 80 0.0 3.0 0.00 0.02 0.00 86 1019.7
20260506124334 54 80 0.0 3.0 0.00 0.02 0.00 86 1019.7
20260506123834 54 80 0.0 3.0 0.00 0.02 0.00 86 1019.6
20260506123333 54 80 1.0 2.0 0.00 0.02 0.00 86 1019.6
20260506122833 54 81 0.0 3.0 0.00 0.02 0.00 86 1019.6
20260506122332 54 81 1.0 3.0 0.00 0.02 0.00 86 1019.5
20260506121831 55 82 1.0 2.0 0.00 0.02 0.00 86 1019.5
20260506121328 55 82 0.0 3.0 0.00 0.02 0.00 85 1019.5
20260506120827 55 82 1.0 3.0 0.00 0.02 0.00 85 1019.5
20260506120328 55 82 1.0 3.0 0.00 0.02 0.00 85 1019.5
20260506115825 55 82 1.0 3.0 0.00 0.03 0.00 85 1019.5
20260506115345 55 84 1.0 2.0 0.00 0.03 0.00 85 1019.5
20260506114825 55 83 0.0 1.0 0.00 0.03 0.00 85 1019.4
20260506114359 55 82 0.0 0.0 0.00 0.03 0.00 85 1019.3
20260506113836 55 83 0.0 0.0 0.00 0.03 0.00 85 1019.4
20260506113336 55 83 0.0 0.0 0.00 0.03 0.00 84 1019.4
20260506112835 55 84 0.0 0.0 0.00 0.03 0.00 84 1019.3
20260506112335 56 84 0.0 0.0 0.00 0.03 0.00 85 1019.3
20260506111829 56 84 0.0 0.0 0.00 0.03 0.00 85 1019.2
20260506111346 56 84 0.0 0.0 0.00 0.03 0.00 84 1019.2
20260506110843 56 84 0.0 0.0 0.00 0.03 0.00 84 1019.2
20260506110342 56 84 0.0 0.0 0.00 0.03 0.00 84 1019.2
20260506105858 56 84 0.0 0.0 0.00 0.08 0.00 84 1019.3
20260506105332 56 84 0.0 0.0 0.00 0.08 0.00 84 1019.2
20260506104854 56 84 0.0 0.0 0.00 0.08 0.00 84 1019.3
20260506104334 56 84 0.0 0.0 0.00 0.08 0.00 84 1019.3
20260506103835 56 85 0.0 0.0 0.00 0.08 0.00 84 1019.4
20260506103353 56 85 0.0 0.0 0.00 0.08 0.00 84 1019.3
20260506102824 56 86 0.0 0.0 0.00 0.08 0.00 84 1019.3
20260506102324 56 86 0.0 0.0 0.00 0.08 0.00 84 1019.3
20260506101842 56 86 0.0 3.0 0.00 0.08 0.00 84 1019.4
20260506101341 56 86 0.0 3.0 0.00 0.08 0.00 84 1019.3
20260506100858 56 86 1.0 3.0 0.00 0.08 0.00 84 1019.4
20260506100352 56 89 1.0 3.0 0.00 0.08 0.00 84 1019.3
20260506095827 56 107 1.0 3.0 0.00 0.16 0.00 84 1019.4
20260506095325 56 107 1.0 3.0 0.00 0.16 0.00 84 1019.4
20260506094904 56 111 1.0 4.0 0.00 0.16 0.00 83 1019.4
20260506094401 56 101 1.0 3.0 0.00 0.16 0.00 83 1019.4
20260506093837 56 104 1.0 3.0 0.00 0.16 0.00 83 1019.4
20260506093337 56 113 1.0 2.0 0.00 0.16 0.00 83 1019.5
20260506092837 56 114 0.0 2.0 0.00 0.16 0.00 83 1019.6
20260506092336 56 115 0.0 2.0 0.00 0.16 0.00 82 1019.5
20260506091834 56 115 0.0 2.0 0.00 0.16 0.00 82 1019.5
20260506091331 56 115 0.0 2.0 0.00 0.16 0.00 82 1019.6
20260506090847 56 150 0.0 1.0 0.00 0.16 0.00 82 1019.7
20260506090344 57 156 0.0 1.0 0.00 0.16 0.00 82 1019.6
20260506085840 57 157 0.0 0.0 0.00 0.16 0.00 82 1019.7
20260506085339 57 157 0.0 0.0 0.00 0.16 0.00 82 1019.7
20260506084838 57 157 0.0 1.0 0.00 0.16 0.00 82 1019.7
20260506084336 57 157 0.0 2.0 0.00 0.16 0.00 82 1019.7
20260506083830 57 157 0.0 3.0 0.00 0.16 0.00 82 1019.7
20260506083332 57 157 1.0 5.0 0.00 0.16 0.00 82 1019.7
20260506082830 57 159 1.0 5.0 0.00 0.16 0.00 82 1019.8
20260506082330 58 163 2.0 4.0 0.00 0.16 0.00 82 1019.8
20260506081828 58 172 2.0 5.0 0.00 0.16 0.00 82 1019.8
20260506081329 58 162 3.0 5.0 0.00 0.16 0.00 82 1019.8
20260506080845 58 171 1.0 4.0 0.00 0.16 0.00 82 1019.9
20260506080342 58 167 1.0 5.0 0.00 0.16 0.00 82 1019.9
20260506073329 58 167 2.0 6.0 0.00 0.16 0.00 81 1019.8
20260506072827 58 160 2.0 7.0 0.00 0.16 0.00 81 1019.7
20260506072324 58 164 4.0 8.0 0.00 0.16 0.00 80 1019.8
20260506071824 58 163 3.0 8.0 0.00 0.16 0.00 80 1019.8
20260506071340 58 180 3.0 8.0 0.00 0.16 0.00 80 1019.8
20260506070857 58 180 2.0 8.0 0.00 0.16 0.00 80 1019.8
20260506070335 59 185 1.0 6.0 0.00 0.16 0.00 79 1019.8
20260506062338 60 130 1.0 5.0 0.00 0.16 0.16 77 1019.4
20260506061834 60 161 1.0 6.0 0.00 0.16 0.16 77 1019.5
20260506061335 60 174 2.0 6.0 0.00 0.16 0.16 77 1019.5
20260506060836 60 165 2.0 6.0 0.00 0.16 0.16 76 1019.4
20260506060353 60 137 1.0 6.0 0.00 0.16 0.16 76 1019.4
20260506051330 61 213 2.0 7.0 0.00 0.16 0.16 74 1018.9
20260506050828 61 183 1.0 9.0 0.00 0.16 0.16 73 1018.9
20260506050328 61 196 4.0 9.0 0.00 0.16 0.16 73 1018.8
20260506044836 61 198 4.0 10.0 0.00 0.16 0.16 72 1018.7
20260506044336 61 191 4.0 10.0 0.00 0.16 0.16 71 1018.5
20260506043836 61 181 4.0 11.0 0.00 0.16 0.16 71 1018.3
20260506043356 61 186 7.0 11.0 0.00 0.16 0.16 71 1018.3
20260506042832 61 184 2.0 11.0 0.00 0.16 0.16 70 1018.3
20260506042329 61 202 5.0 11.0 0.00 0.16 0.16 70 1018.3
20260506041827 61 191 5.0 9.0 0.00 0.16 0.16 70 1018.3
20260506041325 61 174 4.0 8.0 0.00 0.16 0.16 70 1018.3
20260506040825 61 195 4.0 9.0 0.00 0.16 0.16 70 1018.2
20260506040346 62 184 6.0 9.0 0.00 0.16 0.16 70 1018.2
20260506035900 62 233 6.0 10.0 0.00 0.16 0.16 69 1018.1
20260506035336 62 177 6.0 12.0 0.00 0.16 0.16 68 1018.0
20260506034836 62 184 9.0 13.0 0.00 0.16 0.16 67 1017.8
20260506034335 62 238 5.0 10.0 0.00 0.16 0.16 66 1017.7